This is the latest recevied weather packets stored in our database for station/object OK1FET-14. If no packets are shown the sender has not sent any weather packets the latest 10 day(s).
| Time | Temp. | Humidity | Pressure | Rain* | Wind** | Luminosity | Snow |
|---|---|---|---|---|---|---|---|
| 1787906012 | 21.67° C | 64% | 1014.4 hPa | - | - | - | - |
| 1787906012 | 21.67° C | 64% | 1014.4 hPa | - | - | - | - |
| 1787906012 | 21.67° C | 64% | 1014.4 hPa | - | - | - | - |
| 1787905731 | 22.22° C | 62% | 1014.8 hPa | - | - | - | - |
| 1787905731 | 22.22° C | 62% | 1014.8 hPa | - | - | - | - |
| 1787905731 | 22.22° C | 62% | 1014.8 hPa | - | - | - | - |
| 1787905450 | 22.78° C | 61% | 1015.1 hPa | - | - | - | - |
| 1787905449 | 22.78° C | 61% | 1015.1 hPa | - | - | - | - |
| 1787905449 | 22.78° C | 61% | 1015.1 hPa | - | - | - | - |
| 1787905168 | 22.78° C | 60% | 1015.2 hPa | - | - | - | - |
| 1787905168 | 22.78° C | 60% | 1015.2 hPa | - | - | - | - |
| 1787905168 | 22.78° C | 60% | 1015.2 hPa | - | - | - | - |
| 1787904887 | 22.78° C | 62% | 1015.3 hPa | - | - | - | - |
| 1787904887 | 22.78° C | 62% | 1015.3 hPa | - | - | - | - |
| 1787904606 | 22.78° C | 62% | 1015.4 hPa | - | - | - | - |
| 1787904606 | 22.78° C | 62% | 1015.4 hPa | - | - | - | - |
| 1787904606 | 22.78° C | 62% | 1015.4 hPa | - | - | - | - |
| 1787904325 | 22.22° C | 65% | 1015.6 hPa | - | - | - | - |
| 1787904324 | 22.22° C | 65% | 1015.6 hPa | - | - | - | - |
| 1787904324 | 22.22° C | 65% | 1015.6 hPa | - | - | - | - |
| 1787904043 | 21.67° C | 69% | 1015.8 hPa | - | - | - | - |
| 1787904043 | 21.67° C | 69% | 1015.8 hPa | - | - | - | - |
| 1787904043 | 21.67° C | 69% | 1015.8 hPa | - | - | - | - |
| 1787903762 | 21.11° C | 69% | 1016.3 hPa | - | - | - | - |
| 1787903762 | 21.11° C | 69% | 1016.3 hPa | - | - | - | - |
* Rain since midnight (hover to see other rain measurements)
** Current wind speed in m/s (hover to see current wind gust speed)